Location: Mercogliano
(40.9167°N, 14.7333°E)
Time: 14:49:49
(UTC+00:00)

Okean 2 Rocket - Pass Details

Date: 18 September 2020
Orbit: 616 x 642 km, 82.5° (Epoch: 29 October)

Event Time Altitude Azimuth Distance (km) Brightness Sun altitude
Rises 18:01:11 0° 168° (SSE) 2,932 6.3 -11.4°
Reaches altitude 10° 18:03:31 10° 160° (SSE) 2,026 5.4 -11.9°
Maximum altitude 18:07:43 40° 92° (E) 949 3.5 -12.6°
Drops below altitude 10° 18:11:55 10° 23° (NNE) 2,030 5.6 -13.4°
Sets 18:14:15 0° 16° (NNE) 2,938 6.5 -13.8°
